• In Italy
  • List of Countries
  • For 7 days
  • Water Temperature
  • Satellite Maps
  • Weather Map
  • Weather Widgets
  • user-avatar
    Login

    Hourly Weather Sevan

    Today, 19 October, Thursday

    Time Temperature Precipitation Wind Pressure Humidity
    00:00 +7°C° 0 mm 1 mps 645 mmHg 75%
    01:00 +7°C° 0 mm 1 mps 644 mmHg 76%
    02:00 +7°C° 0 mm 1 mps 644 mmHg 77%
    03:00 +6°C° 0 mm 1 mps 644 mmHg 77%
    04:00 +6°C° 0 mm 1 mps 644 mmHg 78%
    05:00 +6°C° 0 mm 1 mps 644 mmHg 79%
    06:00 +6°C° 0 mm 1 mps 644 mmHg 80%
    07:00 +8°C° 0 mm 1 mps 645 mmHg 70%
    08:00 +10°C° 0 mm 1 mps 645 mmHg 60%
    09:00 +12°C° 0 mm 1 mps 646 mmHg 49%
    10:00 +13°C° 0 mm 1 mps 646 mmHg 46%
    11:00 +14°C° 0 mm 1 mps 646 mmHg 42%
    12:00 +15°C° 0 mm 2 mps 646 mmHg 38%
    13:00 +15°C° 0 mm 2 mps 645 mmHg 37%
    14:00 +15°C° 0 mm 2 mps 645 mmHg 36%
    15:00 +15°C° 0 mm 2 mps 645 mmHg 36%
    16:00 +14°C° 0 mm 1 mps 644 mmHg 41%
    17:00 +12°C° 0 mm 1 mps 644 mmHg 46%
    18:00 +10°C° 0 mm 1 mps 643 mmHg 51%
    19:00 +10°C° 0 mm 1 mps 643 mmHg 51%
    20:00 +8°C° 0 mm 0 mps 643 mmHg 51%
    21:00 +8°C° 0 mm 0 mps 643 mmHg 50%
    22:00 +9°C° 0 mm 1 mps 643 mmHg 50%
    23:00 +8°C° 0 mm 1 mps 643 mmHg 49%

    Tomorrow, 20 October, Friday

    Time Temperature Precipitation Wind Pressure Humidity
    00:00 +8°C° 0 mm 1 mps 643 mmHg 48%
    01:00 +8°C° 0 mm 1 mps 642 mmHg 48%
    02:00 +8°C° 0 mm 1 mps 642 mmHg 48%
    03:00 +7°C° 0 mm 1 mps 642 mmHg 47%
    04:00 +7°C° 0 mm 1 mps 642 mmHg 49%
    05:00 +7°C° 0 mm 1 mps 642 mmHg 50%
    06:00 +7°C° 0 mm 1 mps 641 mmHg 52%
    07:00 +9°C° 0 mm 1 mps 642 mmHg 48%
    08:00 +11°C° 0 mm 1 mps 643 mmHg 43%
    09:00 +13°C° 0 mm 1 mps 644 mmHg 39%
    10:00 +14°C° 0 mm 1 mps 644 mmHg 36%
    11:00 +15°C° 0 mm 2 mps 644 mmHg 33%
    12:00 +16°C° 0 mm 2 mps 644 mmHg 30%
    13:00 +16°C° 0 mm 2 mps 644 mmHg 30%
    14:00 +16°C° 0 mm 1 mps 643 mmHg 30%
    15:00 +18°C° 0 mm 1 mps 643 mmHg 30%
    16:00 +15°C° 0 mm 1 mps 643 mmHg 34%
    17:00 +13°C° 0 mm 1 mps 642 mmHg 39%
    18:00 +11°C° 0 mm 1 mps 642 mmHg 44%
    19:00 +10°C° 0 mm 1 mps 642 mmHg 45%
    20:00 +10°C° 0 mm 1 mps 642 mmHg 46%
    21:00 +10°C° 0 mm 1 mps 642 mmHg 47%
    22:00 +9°C° 0 mm 1 mps 642 mmHg 49%
    23:00 +9°C° 0 mm 1 mps 642 mmHg 50%

    Day after tomorrow, 21 October, Saturday

    Time Temperature Precipitation Wind Pressure Humidity
    00:00 +9°C° 0 mm 1 mps 642 mmHg 52%
    01:00 +8°C° 0 mm 1 mps 642 mmHg 52%
    02:00 +8°C° 0 mm 1 mps 642 mmHg 53%
    03:00 +7°C° 0 mm 0 mps 641 mmHg 54%
    04:00 +6°C° 0 mm 0 mps 641 mmHg 55%
    05:00 +6°C° 0 mm 0 mps 641 mmHg 56%
    06:00 +7°C° 0 mm 1 mps 641 mmHg 57%
    07:00 +9°C° 0 mm 1 mps 641 mmHg 50%
    08:00 +11°C° 0 mm 1 mps 642 mmHg 43%
    09:00 +13°C° 0 mm 1 mps 643 mmHg 36%
    10:00 +14°C° 0 mm 1 mps 643 mmHg 33%
    11:00 +15°C° 0 mm 1 mps 643 mmHg 31%
    12:00 +16°C° 0 mm 2 mps 642 mmHg 28%
    13:00 +16°C° 0 mm 2 mps 642 mmHg 28%
    14:00 +16°C° 0 mm 2 mps 642 mmHg 28%
    15:00 +16°C° 0 mm 2 mps 641 mmHg 28%
    16:00 +15°C° 0 mm 1 mps 641 mmHg 33%
    17:00 +13°C° 0 mm 1 mps 640 mmHg 38%
    18:00 +11°C° 0 mm 1 mps 640 mmHg 42%
    19:00 +10°C° 0 mm 1 mps 640 mmHg 44%
    20:00 +10°C° 0 mm 1 mps 640 mmHg 45%
    21:00 +10°C° 0 mm 1 mps 640 mmHg 46%
    22:00 +9°C° 0 mm 1 mps 640 mmHg 46%
    23:00 +9°C° 0 mm 1 mps 640 mmHg 46%

    22 October, Sunday

    Time Temperature Precipitation Wind Pressure Humidity
    00:00 +9°C° 0 mm 1 mps 639 mmHg 47%
    01:00 +8°C° 0 mm 1 mps 639 mmHg 46%
    02:00 +8°C° 0 mm 1 mps 639 mmHg 45%
    03:00 +8°C° 0 mm 1 mps 639 mmHg 44%
    04:00 +7°C° 0 mm 1 mps 639 mmHg 44%
    05:00 +7°C° 0 mm 1 mps 639 mmHg 43%
    06:00 +7°C° 0 mm 1 mps 639 mmHg 43%
    07:00 +9°C° 0 mm 1 mps 639 mmHg 39%
    08:00 +11°C° 0 mm 1 mps 640 mmHg 36%
    09:00 +13°C° 0 mm 2 mps 641 mmHg 33%
    10:00 +14°C° 0 mm 2 mps 640 mmHg 32%
    11:00 +14°C° 0 mm 2 mps 640 mmHg 30%
    12:00 +14°C° 0 mm 3 mps 640 mmHg 29%
    13:00 +14°C° 0 mm 3 mps 640 mmHg 29%
    14:00 +16°C° 0 mm 3 mps 639 mmHg 29%
    15:00 +16°C° 0 mm 3 mps 639 mmHg 30%
    16:00 +14°C° 0 mm 2 mps 639 mmHg 34%
    17:00 +13°C° 0 mm 2 mps 638 mmHg 38%
    18:00 +11°C° 0 mm 1 mps 638 mmHg 42%
    19:00 +11°C° 0 mm 1 mps 638 mmHg 44%
    20:00 +10°C° 0 mm 1 mps 638 mmHg 46%
    21:00 +10°C° 0 mm 1 mps 638 mmHg 47%
    22:00 +9°C° 0 mm 1 mps 638 mmHg 47%
    23:00 +9°C° 0 mm 1 mps 638 mmHg 47%

    23 October, Monday

    Time Temperature Precipitation Wind Pressure Humidity
    00:00 +9°C° 0 mm 1 mps 638 mmHg 47%
    01:00 +8°C° 0 mm 1 mps 638 mmHg 46%
    02:00 +8°C° 0 mm 1 mps 638 mmHg 46%
    03:00 +7°C° 0 mm 1 mps 638 mmHg 45%
    04:00 +7°C° 0 mm 1 mps 638 mmHg 46%
    05:00 +7°C° 0 mm 1 mps 639 mmHg 47%
    06:00 +6°C° 0 mm 1 mps 639 mmHg 48%
    07:00 +8°C° 0 mm 1 mps 639 mmHg 45%
    08:00 +10°C° 0 mm 1 mps 640 mmHg 42%
    09:00 +12°C° 0 mm 2 mps 641 mmHg 39%
    10:00 +13°C° 0 mm 2 mps 641 mmHg 37%
    11:00 +14°C° 0 mm 2 mps 641 mmHg 35%
    12:00 +15°C° 0 mm 2 mps 641 mmHg 32%
    13:00 +15°C° 0 mm 2 mps 641 mmHg 31%
    14:00 +15°C° 0 mm 2 mps 641 mmHg 30%
    15:00 +15°C° 0 mm 2 mps 641 mmHg 29%
    16:00 +14°C° 0 mm 2 mps 640 mmHg 34%
    17:00 +12°C° 0 mm 2 mps 640 mmHg 38%
    18:00 +10°C° 0 mm 1 mps 640 mmHg 42%
    19:00 +10°C° 0 mm 1 mps 640 mmHg 44%
    20:00 +9°C° 0 mm 1 mps 640 mmHg 46%
    21:00 +9°C° 0 mm 1 mps 640 mmHg 48%
    22:00 +8°C° 0 mm 1 mps 640 mmHg 49%
    23:00 +8°C° 0 mm 1 mps 640 mmHg 51%

    24 October, Tuesday

    Time Temperature Precipitation Wind Pressure Humidity
    00:00 +8°C° 0 mm 1 mps 640 mmHg 52%
    01:00 +8°C° 0 mm 1 mps 640 mmHg 53%
    02:00 +7°C° 0 mm 1 mps 640 mmHg 53%
    03:00 +7°C° 0 mm 1 mps 640 mmHg 54%
    04:00 +7°C° 0 mm 1 mps 640 mmHg 53%
    05:00 +7°C° 0 mm 1 mps 640 mmHg 52%
    06:00 +7°C° 0 mm 1 mps 640 mmHg 51%
    07:00 +9°C° 0 mm 1 mps 641 mmHg 45%
    08:00 +10°C° 0 mm 2 mps 642 mmHg 39%
    09:00 +13°C° 0 mm 2 mps 643 mmHg 33%
    10:00 +13°C° 0 mm 3 mps 643 mmHg 31%
    11:00 +14°C° 0 mm 3 mps 643 mmHg 29%
    12:00 +15°C° 0 mm 4 mps 643 mmHg 27%
    13:00 +16°C° 0 mm 3 mps 643 mmHg 27%
    14:00 +16°C° 0 mm 3 mps 642 mmHg 28%
    15:00 +16°C° 0 mm 3 mps 642 mmHg 28%
    16:00 +13°C° 0 mm 3 mps 642 mmHg 32%
    17:00 +13°C° 0 mm 2 mps 642 mmHg 37%
    18:00 +11°C° 0 mm 1 mps 642 mmHg 41%
    19:00 +10°C° 0 mm 2 mps 642 mmHg 41%
    20:00 +9°C° 0 mm 2 mps 642 mmHg 40%
    21:00 +9°C° 0 mm 2 mps 643 mmHg 40%
    22:00 +9°C° 0 mm 2 mps 643 mmHg 40%
    23:00 +10°C° 0 mm 1 mps 643 mmHg 39%
    Show more